[[{"header":{"parameterUnit":"m.s-1","parameterCategory":1,"la1":30.2991,"la2":30.254,"lo1":-89.0895,"lo2":-89.0444,"dy":0.0017,"dx":0.0017,"nx":28,"ny":28,"refTime":"2024-12-06T09:00:00:Z","depth":0,"parameterNumber":2,"parameterNumberName":"U-component_of_WINDS"},"data":[0,0,0,0,0,0,0,0,0,0,0,0,0,0,0,0,0,0,0,0,0,0,0,0,0,0,0,0,0,0,0,0,0,0,0,0,0,0,0,0,0,0,0,0,0,0,0,0,0,0,0,0,0,0,0,0,0,0,-3.4573,-3.4573,0,-3.4582,-3.4582,-3.4583,-3.4468,-3.4465,-3.4462,-3.4459,-3.447,-3.4473,-3.4476,0,0,0,0,0,0,0,0,0,0,0,0,0,-3.4456,-3.4459,-3.4573,-3.4573,-3.4573,-3.4582,-3.4582,-3.4583,-3.4468,-3.4465,-3.4461,-3.4457,-3.4469,-3.4472,-3.4476,0,0,0,0,0,0,0,0,0,0,0,0,0,-3.449,-3.446,-3.4573,-3.4517,-3.4512,-3.4582,-3.4582,-3.4583,-3.4469,-3.4464,-3.446,-3.4455,-3.4467,-3.4472,-3.4477,-3.4601,0,0,-3.4491,-3.4494,0,0,0,0,0,0,0,0,-3.4489,-3.4495,-3.4525,-3.4521,-3.4516,-3.4519,-3.4545,-3.4589,-3.447,-3.4486,-3.4459,-3.4453,-3.449,-3.4493,-3.4505,-3.4601,-3.4602,-3.4492,-3.4495,-3.4497,-3.4498,0,0,0,0,0,0,0,-3.4486,-3.4494,-3.4577,-3.4526,-3.452,-3.4492,-3.4491,-3.4553,-3.4514,-3.4484,-3.4476,-3.4478,-3.4486,-3.45,-3.4504,-3.4602,-3.4492,-3.4496,-3.4499,-3.4501,-3.4798,-3.4803,0,0,0,0,0,0,-3.4491,-3.4493,-3.4576,-3.4577,-3.449,-3.4498,-3.4497,-3.4523,-3.4513,-3.4507,-3.4482,-3.4473,-3.4494,-3.4499,-3.4504,-3.4647,-3.4497,-3.4501,-3.4504,-3.4793,-3.4799,-3.4805,0,0,0,0,0,0,-3.4489,-3.45,-3.4576,-3.4533,-3.454,-3.4505,-3.4534,-3.4526,-3.4539,-3.4512,-3.4504,-3.4504,-3.4491,-3.4497,-3.4577,-3.4646,-3.4504,-3.4508,-3.4787,-3.4795,-3.4802,-3.4935,0,0,0,0,0,0,-3.4487,-3.45,-3.4547,-3.4534,-3.4543,-3.4649,-3.4539,-3.4529,-3.4548,-3.4536,-3.453,-3.4524,-3.4488,-3.457,-3.4582,-3.465,-3.4512,-3.4781,-3.4791,-3.48,-3.4925,-3.4946,-3.4965,0,0,0,0,0,-3.4483,-3.4585,-3.455,-3.4561,-3.4601,-3.4654,-3.4658,-3.4613,-3.4554,-3.46,-3.4582,-3.4525,-3.4637,-3.458,-3.4591,-3.4662,-3.4777,-3.4788,-3.4799,-3.4916,-3.4942,-3.4965,0,0,0,0,0,0,-3.4608,-3.4582,-3.4543,-3.4645,-3.4652,-3.4634,-3.4692,-3.4643,-3.4668,-3.4656,-3.46,-3.4599,-3.4688,-3.4683,-3.462,-3.478,-3.4696,-3.471,-3.4781,-3.4806,-3.4826,-3.4825,-3.4516,0,0,0,0,0,-3.4647,-3.4692,-3.4667,-3.4759,-3.4764,-3.4728,-3.4749,-3.4714,-3.4719,-3.4722,-3.471,-3.4718,-3.4754,-3.478,-3.4812,-3.4923,-3.492,-3.4978,-3.4998,-3.5015,-3.5028,-3.5084,-3.5109,-3.4842,-3.4842,-3.4842,0,0,-3.4729,-3.472,-3.4752,-3.4784,-3.4785,-3.4832,-3.4731,-3.4786,-3.482,-3.473,-3.4804,-3.4796,-3.4801,-3.4896,-3.4938,-3.4895,-3.51,-3.5029,-3.5043,-3.5046,-3.5098,-3.5124,-3.5146,-3.4849,-3.4848,-3.4847,0,0,-3.4902,-3.49,-3.4975,-3.4979,-3.4982,-3.4956,-3.4974,-3.4963,-3.4954,-3.5027,-3.496,-3.5,-3.5065,-3.507,-3.5082,-3.5255,-3.5202,-3.5267,-3.5373,-3.5429,-3.545,-3.5468,-3.5529,-3.5551,-3.528,-3.528,-3.5281,0,-3.5003,-3.5071,-3.502,-3.5079,-3.5094,-3.5014,-3.5089,-3.5095,-3.5109,-3.5121,-3.5073,-3.5151,-3.5149,-3.5243,-3.5285,-3.5298,-3.5316,-3.5267,-3.5451,-3.5469,-3.5485,-3.5542,-3.5565,-3.5288,-3.5287,-3.5286,-3.5286,0,-3.5195,-3.5243,-3.5303,-3.5317,-3.5339,-3.5406,-3.5365,-3.5394,-3.5356,-3.5336,-3.541,-3.5405,-3.5434,-3.5453,-3.5418,-3.5543,-3.5516,-3.5461,-3.5374,-3.5519,-3.5572,-3.5593,-3.5299,-3.5296,-3.5294,-3.5292,0,0,-3.5448,-3.5431,-3.5454,-3.5458,-3.5455,-3.5491,-3.5554,-3.5581,-3.5606,-3.5618,-3.5669,-3.5725,-3.5672,-3.5685,-3.5649,-3.5699,-3.5834,-3.5636,-3.5635,-3.5672,-3.597,-3.6011,-3.6038,-3.5799,-3.5803,-3.5806,-3.5969,0,-3.5615,-3.572,-3.5675,-3.5785,-3.5828,-3.5751,-3.5805,-3.5809,-3.5792,-3.5825,-3.5806,-3.5846,-3.5774,-3.5781,-3.5827,-3.5808,-3.5893,-3.5796,-3.5845,-3.5848,-3.5845,-3.6065,-3.6109,-3.6263,-3.5989,-3.5993,-3.5995,0,-3.5824,-3.5843,-3.5957,-3.5943,-3.596,-3.6009,-3.6029,-3.6063,-3.6065,-3.6049,-3.6063,-3.6015,-3.6075,-3.599,-3.6071,-3.6006,-3.6023,-3.6017,-3.6022,-3.6024,-3.593,-3.6072,-3.6311,-3.6334,-3.6027,-3.6025,-3.6023,0,-3.5995,-3.6049,-3.6123,-3.613,-3.6117,-3.6153,-3.615,-3.6147,-3.6165,-3.6183,-3.6195,-3.622,-3.6234,-3.6255,-3.6215,-3.6157,-3.6302,-3.6213,-3.6289,-3.629,-3.6323,-3.6321,-3.6567,-3.6336,-3.6336,-3.6335,-3.6335,0,-3.6186,-3.6258,-3.62,-3.6246,-3.6324,-3.6271,-3.635,-3.6338,-3.6336,-3.6378,-3.6314,-3.6355,-3.63,-3.6336,-3.6305,-3.6376,-3.6383,-3.6371,-3.6362,-3.6377,-3.6378,-3.6387,-3.6375,-3.6341,-3.634,-3.6339,-3.6338,0,-3.6391,-3.6355,-3.643,-3.6411,-3.6408,-3.6466,-3.6449,-3.6491,-3.6468,-3.6521,-3.6531,-3.6496,-3.6534,-3.6496,-3.6533,-3.6512,-3.6607,-3.6583,-3.6606,-3.6599,-3.6676,-3.6669,-3.6936,-3.6967,-3.6717,-3.672,-3.6722,0,-3.6514,-3.6568,-3.6553,-3.6576,-3.6576,-3.6614,-3.6632,-3.6582,-3.6603,-3.6609,-3.6649,-3.6682,-3.6705,-3.6769,-3.6747,-3.6774,-3.6749,-3.6841,-3.6753,-3.6765,-3.6749,-3.6746,-3.675,-3.6858,-3.6861,-3.6864,-3.6866,0,-3.6737,-3.6716,-3.6744,-3.6766,-3.6789,-3.6804,-3.6814,-3.6836,-3.6784,-3.6812,-3.6849,-3.6867,-3.6903,-3.6936,-3.6955,-3.6951,-3.6901,-3.6894,-3.6912,-3.6927,-3.6938,-3.6932,-3.6653,-3.6888,-3.6886,-3.6884,-3.6883,-3.6882,-3.6904,-3.6947,-3.6943,-3.6976,-3.6978,-3.6988,-3.7025,-3.7006,-3.7036,-3.7061,-3.703,-3.7076,-3.7075,-3.7096,-3.7098,-3.7133,-3.7094,-3.7122,-3.7128,-3.7136,-3.7147,-3.6933,-3.7136,-3.7136,-3.7135,-3.7135,-3.7134,0,-3.7123,-3.7116,-3.7146,-3.7161,-3.7187,-3.7135,-3.7143,-3.7168,-3.7209,-3.7212,-3.7235,-3.7278,-3.7309,-3.7288,-3.7314,-3.7346,-3.7323,-3.7355,-3.7351,-3.7351,-3.718,-3.7161,-3.7373,-3.7373,-3.7373,-3.7372,-3.7372,-3.7372,-3.7239,-3.7309,-3.7287,-3.7356,-3.7349,-3.7392,-3.7401,-3.741,-3.7411,-3.7461,-3.7486,-3.7472,-3.7465,-3.749,-3.7516,-3.7509,-3.7521,-3.7561,-3.7546,-3.7387,-3.7363,-3.7341,-3.7322,-3.7564,-3.7565,-3.7713,-3.7715,-3.7716]},{"header":{"parameterUnit":"m.s-1","parameterCategory":1,"la1":30.2991,"la2":30.254,"lo1":-89.0895,"lo2":-89.0444,"dy":0.0017,"dx":0.0017,"nx":28,"ny":28,"refTime":"2024-12-06T09:00:00:Z","depth":0,"parameterNumber":3,"parameterNumberName":"V-component_of_WINDS"},"data":[0,0,0,0,0,0,0,0,0,0,0,0,0,0,0,0,0,0,0,0,0,0,0,0,0,0,0,0,0,0,0,0,0,0,0,0,0,0,0,0,0,0,0,0,0,0,0,0,0,0,0,0,0,0,0,0,0,0,0.7762,0.7762,0,0.7706,0.7705,0.7704,0.7659,0.7658,0.7658,0.7657,0.7596,0.7595,0.7594,0,0,0,0,0,0,0,0,0,0,0,0,0,0.7828,0.7827,0.7762,0.7762,0.7761,0.7706,0.7705,0.7704,0.7659,0.7658,0.7658,0.7657,0.7597,0.7595,0.7594,0,0,0,0,0,0,0,0,0,0,0,0,0,0.7788,0.7827,0.7762,0.7732,0.7728,0.7706,0.7705,0.7704,0.7659,0.7658,0.7658,0.7657,0.7597,0.7596,0.7594,0.7597,0,0,0.7588,0.7588,0,0,0,0,0,0,0,0,0.7791,0.7786,0.7737,0.7734,0.773,0.7689,0.7706,0.7668,0.7659,0.7685,0.7657,0.7657,0.7627,0.7623,0.7614,0.7594,0.7591,0.7588,0.7587,0.7586,0.7586,0,0,0,0,0,0,0,0.7793,0.7788,0.774,0.7736,0.7732,0.772,0.7713,0.7699,0.7661,0.7683,0.7679,0.7673,0.7625,0.7616,0.7612,0.759,0.7588,0.7587,0.7586,0.7585,0.757,0.757,0,0,0,0,0,0,0.7801,0.7791,0.7742,0.7738,0.7759,0.7719,0.7712,0.7703,0.7661,0.7654,0.7674,0.7672,0.7619,0.7614,0.761,0.761,0.7586,0.7585,0.7584,0.7569,0.757,0.757,0,0,0,0,0,0,0.7803,0.7797,0.7744,0.7763,0.7756,0.7719,0.7709,0.7702,0.7692,0.7654,0.7647,0.7671,0.7619,0.7612,0.7601,0.7608,0.7584,0.7582,0.7568,0.7569,0.757,0.7611,0,0,0,0,0,0,0.7805,0.7798,0.7799,0.7764,0.7755,0.7736,0.7709,0.7701,0.769,0.7686,0.765,0.7643,0.7617,0.7603,0.7599,0.7605,0.7581,0.7567,0.7569,0.757,0.7609,0.7614,0.7618,0,0,0,0,0,0.7807,0.7813,0.78,0.7794,0.7756,0.7737,0.7732,0.7703,0.769,0.7691,0.7667,0.7644,0.7608,0.7603,0.7597,0.7602,0.7567,0.7568,0.757,0.7607,0.7613,0.7617,0,0,0,0,0,0,0.7849,0.7807,0.7793,0.7787,0.7766,0.7729,0.7729,0.7709,0.7691,0.7688,0.7652,0.7644,0.7636,0.7618,0.7613,0.7603,0.7584,0.7585,0.7615,0.762,0.7624,0.7628,0.7579,0,0,0,0,0,0.7857,0.7846,0.781,0.7809,0.7799,0.7766,0.7757,0.7736,0.7713,0.7703,0.7678,0.7655,0.7639,0.7628,0.7611,0.7607,0.7598,0.7608,0.7612,0.7616,0.7616,0.7612,0.7616,0.7575,0.7575,0.7575,0,0,0.7875,0.7851,0.7846,0.7816,0.7798,0.7786,0.7759,0.7748,0.7738,0.7701,0.7689,0.767,0.7642,0.7634,0.7629,0.7619,0.7626,0.7617,0.7621,0.7619,0.7614,0.7618,0.7622,0.7576,0.7576,0.7576,0,0,0.79,0.7881,0.7878,0.786,0.7833,0.7811,0.781,0.7777,0.7763,0.775,0.7722,0.771,0.7682,0.7664,0.7651,0.767,0.7649,0.7666,0.7687,0.7683,0.7687,0.7689,0.7696,0.7699,0.7666,0.7666,0.7666,0,0.7924,0.7907,0.7878,0.7869,0.7857,0.7824,0.7819,0.7803,0.7771,0.7763,0.7753,0.7717,0.7696,0.7683,0.7688,0.7679,0.7676,0.7669,0.7689,0.7691,0.7693,0.7699,0.7701,0.7669,0.7668,0.7668,0.7668,0,0.7938,0.7927,0.7927,0.7898,0.7886,0.7879,0.7849,0.784,0.7821,0.78,0.7787,0.7761,0.7738,0.7733,0.7714,0.7718,0.7712,0.7696,0.7676,0.77,0.7704,0.7706,0.7672,0.7671,0.767,0.767,0,0,0.7987,0.7943,0.7944,0.793,0.7898,0.7888,0.788,0.7859,0.7851,0.7831,0.7822,0.78,0.7785,0.777,0.7749,0.7746,0.7763,0.773,0.7728,0.7736,0.7764,0.7777,0.778,0.7749,0.7749,0.775,0.7767,0,0.8007,0.7991,0.7965,0.7958,0.7946,0.7915,0.7908,0.7887,0.7868,0.7855,0.7833,0.7817,0.7799,0.779,0.7786,0.7762,0.7768,0.776,0.774,0.7739,0.7747,0.7782,0.7795,0.7812,0.7768,0.7769,0.7769,0,0.8027,0.801,0.8002,0.7971,0.7965,0.7959,0.7937,0.7926,0.7901,0.7887,0.7872,0.7849,0.7838,0.7821,0.7805,0.78,0.779,0.7777,0.7777,0.7773,0.7755,0.7779,0.7817,0.7819,0.7772,0.7771,0.7771,0,0.8063,0.8037,0.8029,0.8019,0.7983,0.7979,0.7964,0.7939,0.7928,0.7909,0.7901,0.7881,0.7869,0.7853,0.7825,0.7816,0.7812,0.7793,0.7799,0.78,0.7799,0.7799,0.7836,0.7794,0.7794,0.7794,0.7794,0,0.8088,0.8084,0.8045,0.804,0.8034,0.8004,0.7999,0.7981,0.7959,0.7949,0.7921,0.7912,0.7876,0.7863,0.7841,0.7831,0.7826,0.7814,0.7808,0.7816,0.7817,0.7808,0.7806,0.7795,0.7795,0.7795,0.7795,0,0.8126,0.81,0.8089,0.8057,0.8048,0.8046,0.8017,0.801,0.799,0.7978,0.7973,0.794,0.7923,0.7894,0.7868,0.7854,0.7847,0.7838,0.7856,0.7852,0.786,0.7859,0.7891,0.7893,0.7852,0.7852,0.7853,0,0.8143,0.8139,0.8107,0.8099,0.8085,0.8072,0.8061,0.8031,0.8021,0.7993,0.799,0.7971,0.7954,0.7928,0.7902,0.7882,0.7871,0.7883,0.7868,0.7876,0.787,0.787,0.787,0.7887,0.7887,0.7888,0.7888,0,0.8176,0.8163,0.8149,0.813,0.8118,0.8101,0.8083,0.8078,0.8044,0.8033,0.8016,0.8004,0.7978,0.7959,0.7936,0.7919,0.7898,0.7894,0.7894,0.7902,0.7912,0.7906,0.7865,0.7893,0.7892,0.7892,0.7892,0.7892,0.8203,0.8199,0.8175,0.816,0.8144,0.8128,0.812,0.8099,0.8085,0.8062,0.8046,0.803,0.8005,0.7972,0.7956,0.7943,0.7933,0.7934,0.7934,0.7934,0.7937,0.7915,0.7938,0.7938,0.7938,0.7938,0.7938,0,0.8234,0.8218,0.8204,0.818,0.8168,0.8151,0.813,0.8121,0.8108,0.8088,0.8072,0.8052,0.8034,0.8007,0.7986,0.7981,0.7971,0.7976,0.7976,0.7972,0.7947,0.7949,0.7985,0.7985,0.7985,0.7985,0.7985,0.7985,0.8248,0.824,0.8225,0.8207,0.8191,0.8176,0.8165,0.815,0.8134,0.8114,0.8099,0.8082,0.8058,0.8036,0.8018,0.8011,0.8004,0.8013,0.8002,0.7978,0.7974,0.797,0.7971,0.8012,0.8012,0.8028,0.8028,0.8028]}]]